Location: Ottawa
(45.4170°N, 75.7000°W)
Time: 05:26:04
(UTC-04:00)

ISS - Visible Passes

Search period start: 24 May 2019 00:00
Search period end: 03 June 2019 00:00
Orbit: 408 x 418 km, 51.6° (Epoch: 24 May)

Date Brightness Start Highest point End Pass type
(mag) Time Alt. Az. Time Alt. Az. Time Alt. Az.
24 May -1.5 01:18:28 10° WNW 01:19:33 19° WNW 01:19:33 19° WNW visible
24 May -2.1 21:14:49 10° W 21:17:57 37° NNW 21:21:07 10° NE visible
24 May -1.7 22:52:17 10° WNW 22:55:12 27° N 22:58:09 10° ENE visible
25 May -2.6 00:29:01 10° WNW 00:31:30 42° NNW 00:31:30 42° NNW visible
25 May -1.6 22:02:37 10° WNW 22:05:32 27° N 22:08:27 10° ENE visible
25 May -2.6 23:39:33 10° NW 23:42:45 41° NNE 23:43:31 35° NE visible
26 May -0.8 01:16:16 10° WNW 01:16:19 10° WNW 01:16:19 10° WNW visible
26 May -1.7 21:12:54 10° WNW 21:15:52 28° N 21:18:50 10° NE visible
26 May -2.2 22:50:03 10° NW 22:53:08 33° NNE 22:55:32 15° ENE visible
27 May -2.0 00:26:40 10° WNW 00:28:20 27° WNW 00:28:20 27° WNW visible
27 May -1.9 22:00:29 10° NW 22:03:28 29° N 22:06:26 10° ENE visible
27 May -3.7 23:37:08 10° WNW 23:40:24 74° N 23:40:24 74° N visible
28 May -3.1 22:47:39 10° NW 22:50:56 51° NNE 22:52:28 27° E visible
29 May -1.3 00:24:30 10° WNW 00:25:16 15° W 00:25:16 15° W visible
29 May -2.5 21:58:07 10° NW 22:01:17 38° NNE 22:04:28 10° E visible
29 May -3.0 23:34:47 10° WNW 23:37:22 41° WSW 23:37:22 41° WSW visible
30 May -3.9 22:45:11 10° WNW 22:48:32 80° SSW 22:49:30 43° SE visible
31 May -3.5 21:55:38 10° WNW 21:58:58 66° NNE 22:01:38 15° ESE visible
31 May -1.7 23:32:46 10° W 23:34:27 19° WSW 23:34:27 19° WSW visible
01 Jun -2.9 22:42:52 10° WNW 22:45:56 34° SW 22:46:37 30° SSW visible
02 Jun -3.5 21:53:09 10° WNW 21:56:26 57° SW 21:58:50 17° SE visible
